weather.gov     
National Weather Service

Regional Weather Roundup
NWS Homepage
This page is being discontinued on March 12, 2014.
The same data is available at this site. Please update your bookmarks.
Thank you, and we apologize for the inconvenience.
Please send an email to SR-SRH.Webmaster@noaa.gov with any concerns.


Current Version
Previous Version:    01  02  03  04  05  06  07  08  09  10  11  12  13  14  15  16  17  18  19  20  21  22  23  24  25  26  27  28  
[Printable]
481
ASUS46 KSEW 200810
RWRWA

WASHINGTON REGIONAL WEATHER ROUNDUP
NATIONAL WEATHER SERVICE SEATTLE WA
100 AM PDT SAT SEP 20 2014

NOTE:"FAIR" INDICATES FEW OR NO CLOUDS BELOW 12,000 FEET WITH NO
SIGNIFICANT WEATHER AND/OR OBSTRUCTIONS TO VISIBILITY.

WAZ505-507>509-200900-
SEATTLE, TACOMA, EVERETT, AND VICINITY

CITY           SKY/WX    TMP DP  RH WIND       PRES   REMARKS
EVERETT        CLEAR     59  56  89 VRB5      30.13S
BOEING FIELD   CLEAR     66  56  70 CALM      30.10F
RENTON         CLEAR     64  60  87 N8        30.10S
SEATAC AIRPORT PTCLDY    62  56  80 N6        30.11F
JBLM-MCCHORD   CLEAR     62  56  83 NE6       30.10F
PUYALLUP       NOT AVBL
JBLM-FT LEWIS  CLEAR     56  56  99 SE5       30.10S
TACOMA NARROWS CLEAR     62  55  77 N7        30.10S
$$

WAZ001-503-506-510-514-515-200900-
NORTH INTERIOR

CITY           SKY/WX    TMP DP  RH WIND       PRES   REMARKS
BELLINGHAM       N/A     59  57  93 N7        30.13S VSB 1/4
FRIDAY HARBOR  CLEAR     58  57  97 VRB3      30.14S
EASTSOUND      FOG       57  57 100 CALM      30.13S VSB 3/4
PORT ANGELES   CLOUDY    55  53  93 SW3       30.15R
NAS WHIDBEY    PTCLDY    58  54  86 W3        30.13F
BURLINGTON     PTCLDY    59  57  94 NW5       30.14S
$$

WAZ020-022-039-040-504-511-512-200900-
SOUTHWEST INTERIOR

CITY           SKY/WX    TMP DP  RH WIND       PRES   REMARKS
SHELTON        PTCLDY    55  54  96 CALM      30.08F
OLYMPIA        CLEAR     53  52  96 CALM      30.10S
CHEHALIS       FAIR      57  57 100 CALM      30.09S
KELSO          CLEAR     63  55  77 N6        30.10F
VANCOUVER      CLEAR     64  58  80 W3        30.04R
SCAPPOOSE, OR  CLEAR     65  58  78 NW9       30.04S
PORTLAND, OR   CLEAR     64  59  83 NW6       30.04S
$$

WAZ021-516-517-200900-
WASHINGTON COAST

CITY           SKY/WX    TMP DP  RH WIND       PRES   REMARKS
FORKS          PTCLDY    51  51 100 N3        30.12S
HOQUIAM        FOG       58  58 100 CALM      30.10S VSB 3/4
ASTORIA, OR    FOG       55  54  96 CALM      30.06S VSB 3/4
$$

WAZ019-023-024-040-518-519-200900-
CASCADE MOUNTAINS AND COLUMBIA GORGE

CITY           SKY/WX    TMP DP  RH WIND       PRES   REMARKS
STAMPEDE PASS  NOT AVBL
TROUTDALE, OR  CLEAR     61  55  81 E3        30.03S
THE DALLES, OR CLEAR     65  54  67 SW3       30.01R
$$

WAZ026-027-041>044-520-521-200900-
EAST SLOPES

CITY           SKY/WX    TMP DP  RH WIND       PRES   REMARKS
OMAK           PTCLDY    60  45  57 W10       30.07R
WENATCHEE      CLEAR     66  50  56 N7        30.07S
ELLENSBURG     CLEAR     59  49  69 N8        30.09R
YAKIMA         CLEAR     63  51  65 W5        30.07R
$$

WAZ028-034-035-200900-
COLUMBIA BASIN

CITY           SKY/WX    TMP DP  RH WIND       PRES   REMARKS
EPHRATA        CLEAR     67  49  52 N3        30.05R
MOSES LAKE     CLEAR     58  50  75 W3        30.06R
PASCO          CLEAR     58  53  84 N6        30.04R
HERMISTON, OR  CLEAR     59  48  67 E6        30.03R
$$

WAZ036>038-200900-
NORTHEAST WASHINGTON

CITY           SKY/WX    TMP DP  RH WIND       PRES   REMARKS
SPOKANE GEIGER PTCLDY    59  45  59 S8        30.11R
SPOKANE FELTS  PTCLDY    57  46  66 NE3       30.11R
FAIRCHILD AFB  PTCLDY    55  45  68 S3        30.12R
COEURDALENE,ID PTCLDY    57  50  77 SE6       30.12R
DEER PARK      PTCLDY    50  44  80 CALM      30.11R
$$

WAZ029>033-200900-
SOUTHEAST WASHINGTON

CITY           SKY/WX    TMP DP  RH WIND       PRES   REMARKS
PULLMAN        CLEAR     55  43  63 CALM      30.14R
LEWISTON, ID   CLEAR     61  46  57 SE6       30.09R
WALLA WALLA    CLEAR     61  45  55 E6        30.06R
PENDLETON, OR  CLEAR     61  44  53 SE9       30.05S
$$




U.S. Dept. of Commerce
NOAA National Weather Service
1325 East West Highway
Silver Spring, MD 20910
E-mail: w-nws.webmaster@noaa.gov
Page last modified: May 16, 2007
NATIONAL WEATHER SERVICE: for Safety, for Work, for Fun - FOR LIFE